Waterford, MI

8:37 AM EST on January 20, 2017 (GMT -0500)
Oakland County International

Weather History for KPTK - April, 2013

Change the Weather History Date:

Friday, April 5, 2013

  Actual Average Record
Temperature  
Mean Temperature 39 °F -  
Max Temperature 46 °F 50 °F 75 °F (2005)
Min Temperature 30 °F 32 °F 17 °F (2016)
Degree Days  
Heating Degree Days 26    
Moisture  
Dew Point 20 °F    
Average Humidity 50    
Maximum Humidity 81    
Minimum Humidity 30    
Precipitation  
Precipitation 0.00 in - - ()
Sea Level Pressure  
Sea Level Pressure 30.09 in    
Wind  
Wind Speed 8 mph (North)    
Max Wind Speed 15 mph    
Max Gust Speed 21 mph    
Visibility 10 miles    
Events      
Averages and records for this station are not official NWS values.
T = Trace of Precipitation, MM = Missing Value Source: NWS Daily Summary

Daily Weather History Graph

Daily Weather History Graph

Search for Another Location

Airport or City:

Trip Planner

Search our weather history database for the weather conditions in past years. The results will help you decide how hot, cold, wet, or windy it might be!

Date:

Astronomy

Apr. 05, 2013 Rise Set
Actual Time 7:08 AM EDT 8:04 PM EDT
Civil Twilight 6:39 AM EDT 8:33 PM EDT
Nautical Twilight 6:05 AM EDT 9:07 PM EDT
Astronomical Twilight 5:30 AM EDT 9:43 PM EDT
Moon 4:21 AM EDT (4/5) 3:21 PM EDT (4/5)
Length of Visible Light 13h 53m
Length of Day
12h 55m
Waning Crescent, 24% of the Moon is Illuminated
Apr 5
Waning Crescent
Apr 10
New
Apr 18
First Quarter
Apr 25
Full
May 2
Last Quarter

Hourly Weather History & Observations

Time (EDT) Temp. Windchill Dew Point Humidity Pressure Visibility Wind Dir Wind Speed Gust Speed Precip Events Conditions
12:53 AM 46.0 °F 43.1 °F 18.0 °F 33% 29.94 in 10.0 mi NNW 5.8 mph - N/A   Overcast
1:53 AM 44.1 °F 41.5 °F 19.0 °F 37% 29.94 in 10.0 mi North 4.6 mph - N/A   Mostly Cloudy
2:53 AM 42.1 °F 36.6 °F 21.9 °F 45% 29.95 in 10.0 mi NNE 9.2 mph - N/A   Mostly Cloudy
3:53 AM 37.9 °F 33.5 °F 28.0 °F 68% 29.96 in 10.0 mi North 5.8 mph - N/A   Partly Cloudy
4:53 AM 37.0 °F 31.0 °F 30.0 °F 76% 29.99 in 10.0 mi North 8.1 mph - N/A   Clear
5:46 AM 35.6 °F 27.1 °F 30.2 °F 81% 30.00 in 9.0 mi North 12.7 mph - N/A   Mostly Cloudy
5:53 AM 36.0 °F 28.5 °F 28.9 °F 76% 30.02 in 9.0 mi North 10.4 mph 18.4 mph N/A   Mostly Cloudy
6:03 AM 35.6 °F 28.6 °F 28.4 °F 75% 30.01 in 9.0 mi North 9.2 mph - N/A   Scattered Clouds
6:53 AM 33.1 °F 26.1 °F 24.1 °F 70% 30.05 in 10.0 mi North 8.1 mph - N/A   Clear
7:53 AM 33.1 °F 26.1 °F 24.1 °F 70% 30.09 in 10.0 mi North 8.1 mph - N/A   Partly Cloudy
8:53 AM 36.0 °F 28.5 °F 21.9 °F 57% 30.10 in 10.0 mi NW 10.4 mph - N/A   Partly Cloudy
9:53 AM 37.0 °F 28.1 °F 19.0 °F 48% 30.11 in 10.0 mi North 15.0 mph - N/A   Partly Cloudy
10:53 AM 39.0 °F 31.0 °F 16.0 °F 39% 30.12 in 10.0 mi NNW 13.8 mph 17.3 mph N/A   Partly Cloudy
11:53 AM 41.0 °F 34.3 °F 18.0 °F 40% 30.13 in 10.0 mi NNW 11.5 mph - N/A   Partly Cloudy
12:53 PM 42.1 °F 35.2 °F 18.0 °F 38% 30.14 in 10.0 mi NNW 12.7 mph 20.7 mph N/A   Clear
1:53 PM 43.0 °F 35.7 °F 17.1 °F 35% 30.13 in 10.0 mi North 15.0 mph 18.4 mph N/A   Partly Cloudy
2:53 PM 44.1 °F 38.1 °F 15.1 °F 31% 30.13 in 10.0 mi North 11.5 mph 18.4 mph N/A   Partly Cloudy
3:53 PM 44.1 °F 38.6 °F 15.1 °F 31% 30.12 in 10.0 mi NNE 10.4 mph 20.7 mph N/A   Partly Cloudy
4:53 PM 45.0 °F 39.3 °F 15.1 °F 30% 30.12 in 10.0 mi NNW 11.5 mph - N/A   Partly Cloudy
5:53 PM 45.0 °F 40.6 °F 16.0 °F 31% 30.13 in 10.0 mi North 8.1 mph - N/A   Scattered Clouds
6:53 PM 43.0 °F 40.3 °F 15.1 °F 32% 30.15 in 10.0 mi Variable 4.6 mph - N/A   Scattered Clouds
7:53 PM 41.0 °F 36.4 °F 15.1 °F 35% 30.16 in 10.0 mi NNE 6.9 mph - N/A   Overcast
8:53 PM 39.0 °F 36.8 °F 15.1 °F 38% 30.18 in 10.0 mi NE 3.5 mph - N/A   Overcast
9:53 PM 34.0 °F 28.0 °F 21.0 °F 59% 30.21 in 10.0 mi East 6.9 mph - N/A   Overcast
10:53 PM 32.0 °F 25.6 °F 19.9 °F 61% 30.22 in 10.0 mi East 6.9 mph - N/A   Mostly Cloudy
11:53 PM 30.0 °F 25.2 °F 19.9 °F 66% 30.22 in 10.0 mi East 4.6 mph - N/A   Scattered Clouds